Regional Weather Roundup
Issued by NWS New Orleans/Baton Rouge, LA

Home | Current Version | Previous Version | Text Only | Print | Product List | Glossary Off
Versions: 1 2 3 4 5 6 7 8 9 10 11 12 13 14 15 16 17 18 19 20 21 22 23 24 25 26 27 28 29 30 31 32 33 34 35 36 37 38 39 40 41 42 43 44 45 46 47 48 49 50

905
ASUS44 KLIX 242201
RWRLIX
NEW ORLEANS REGIONAL WEATHER ROUNDUP
NATIONAL WEATHER SERVICE NEW ORLEANS LA
500 PM CDT THU APR 24 2014

NOTE: "FAIR" INDICATES FEW OR NO CLOUDS BELOW 12,000 FEET WITH NO
      SIGNIFICANT WEATHER AND/OR OBSTRUCTIONS TO VISIBILITY.
      SKY/WX - SKY CONDITION AND SIGNIFICANT WEATHER.
      TMP - AIR TEMPERATURE.     DP    - DEWPOINT TEMPERATURE.
      RH  - RELATIVE HUMIDITY.   PRES  - PRESSURE.
      HI  - HEAT INDEX.          WCI   - WIND CHILL INDEX.

*  THESE STATIONS ARE NOT NWS OR FAA STATIONS AND ARE NOT UNDER
   NWS QUALITY CONTROL.

LAZ038-040-048-061>063-065>067-069-242300-
SOUTHEAST LOUISIANA

CITY           SKY/WX    TMP DP  RH WIND       PRES   REMARKS
N.O. AUDUBON     N/A     82  67  60 MISG        N/A
N.O. INTL ARPT PTSUNNY   80  65  59 S18       29.87F
N.O. LAKEFRONT SUNNY     81  65  58 S15       29.89F
N.O. DOWNTOWN*   N/A     81  63  54 S15       29.89F
SLIDELL        MOSUNNY   79  65  62 S14       29.88F
BATON ROUGE    MOSUNNY   83  63  50 S12       29.85F
BOOTHVILLE     MOSUNNY   74  66  76 S8        29.94F
BELLE CHASSE   PTSUNNY   77  65  66 S13       29.90F
BOGALUSA*        N/A     83  61  47 S12       29.88F
GALLIANO*      NOT AVBL
NEW ROADS*     NOT AVBL
GONZALES*      MOCLDY    81  65  59 S10       29.85F
HAMMOND*       NOT AVBL
HOUMA*         MOSUNNY   79  64  61 SE17      29.89F
PORT FOURCHON* MOCLDY    75  68  78 S10       29.94S

$$

MSZ070-080>082-242300-
SOUTHERN MISSISSIPPI

CITY           SKY/WX    TMP DP  RH WIND       PRES   REMARKS
MCCOMB         MOSUNNY   81  62  52 S13       29.85F
GULFPORT       MOSUNNY   77  65  66 S9        29.92F
BILOXI         MOSUNNY   76  65  70 S13       29.93F
PASCAGOULA     MOSUNNY   75  65  70 SW8       29.93F

$$

COASTAL OBSERVATIONS
LAKE AND NEARSHORE STATIONS

STATION/POSITION TIME  TEMP    WIND        PRES    WAVE
                       AIR SEA DIR/SP/G            HT/PER
                 (UTC) (F)     (DEG/KT/KT) (MB)    (FT/S)
PASCAGOULA       2100   75     190/  8/ 10 1013.3
WAVELAND YACHT   2100   73 77  160/ 13/ 15 1012.6
GRAND ISLE       2100   75 72  170/  5/ 10 1014.0
SOUTHWEST PASS   2100   77 62  160/  6/  8 1014.3
NEW CANAL        2100   79 75  200/  9/ 12 1012.9
SHELL BEACH      2100   76 69  190/ 10/ 13 1013.1

OFFSHORE STATIONS

STATION/POSITION TIME  TEMP    WIND        PRES    WAVE
                       AIR SEA DIR/SP/G            HT/PER
                 (UTC) (F)     (DEG/KT/KT) (MB)    (FT/S)
64 S DAUPHIN ISL 2111   72 74  210/  6/  8 1014.8

$$




USA.gov is the U.S. government's official web portal to all federal, state and local government web resources and services.